Regional Weather Roundup
Issued by NWS

Home | Current Version | Previous Version | Graphics & Text | Print | Product List | Glossary On
Versions: 1 2 3 4 5 6 7 8 9 10 11 12 13 14 15 16 17 18 19 20 21 22 23 24 25 26 27 28 29 30 31 32 33 34 35 36 37 38 39 40 41 42 43 44 45 46 47 48 49 50
000
ASUS43 KLMK 251902
RWRKY
KENTUCKY REGIONAL WEATHER ROUNDUP
NATIONAL WEATHER SERVICE LOUISVILLE KY
300 PM EDT SAT MAR 25 2017

NOTE "FAIR" INDICATES FEW OR NO CLOUDS BELOW 12,000 FEET
WITH NO SIGNIFICANT WEATHER AND/OR OBSTRUCTIONS TO VISIBILITY.

KYZ001>023-026-027-061>063-070>075-252000-
WESTERN AND SOUTH CENTRAL KENTUCKY

CITY           SKY/WX    TMP DP  RH WIND       PRES   REMARKS
PADUCAH        CLOUDY    65  56  72 S10G24    29.93S
HENDERSON      CLOUDY    72  52  49 S17G24    29.94F
OWENSBORO      PTSUNNY   72  55  55 S12G21    29.97F
HOPKINSVILLE   CLOUDY    71  51  48 S17G26    29.97F
BOWLING GREEN  MOSUNNY   75  52  44 S21G32    30.02F
GLASGOW        NOT AVBL
$$

KYZ024-025-028>034-038-045-046-053-252000-
NORTH CENTRAL KENTUCKY

CITY           SKY/WX    TMP DP  RH WIND       PRES   REMARKS
LOUISVILLE/SDF PTSUNNY   77  46  33 S24       30.01F
LOUISVILLE/LOU CLOUDY    77  48  35 S17G24    30.02F
FORT KNOX      CLOUDY    75  50  41 S17G28    30.00F
$$

KYZ035>037-039>044-047>052-055>060-089>105-252000-
NORTHEAST KENTUCKY

CITY           SKY/WX    TMP DP  RH WIND       PRES   REMARKS
LEXINGTON      PTSUNNY   75  48  38 S15       30.08F
COVINGTON      PTSUNNY   76  52  43 S17G24    30.05F
FRANKFORT      PTSUNNY   77  48  35 S18G24    30.05F
$$

KYZ054-064>069-076>088-106>120-252000-
SOUTHEAST KENTUCKY

CITY           SKY/WX    TMP DP  RH WIND       PRES   REMARKS
JACKSON        PTSUNNY   76  48  37 CALM      30.13F
LONDON         MOSUNNY   73  47  39 SE10G21   30.11F
SOMERSET       NOT AVBL
MIDDLESBORO    MOSUNNY   72  50  44 S5        30.14F
MONTICELLO     CLOUDY    73  53  49 S12G22    30.11F
$$




USA.gov is the U.S. government's official web portal to all federal, state and local government web resources and services.